Wind_Speed
36 37 36 39 36 38 43 54 63 71 73 72 73 75 77 77 77 75 74 75 74 72 74 73 71 73 74 70 66 63 55 56 57 54 44 44 45 43 41 43 43 42 37 36 33 35 31 29 27
42 40 42 39 45 46 45 46 47 54 65 67 72 77 82 82 81 81 82 79 79 76 77 78 76 76 78 73 76 70 66 60 58 59 53 50 48 45 46 48 45 40 36 35 34 38 34 33 32
43 43 44 43 43 52 50 52 50 51 52 58 68 74 80 83 85 84 85 86 84 84 80 82 82 82 80 80 76 77 75 67 63 58 51 54 53 54 52 49 51 45 43 45 44 42 42 39 39
43 45 45 52 54 48 51 59 58 58 57 57 60 64 70 74 84 89 86 86 88 89 89 85 84 85 85 84 82 77 79 75 70 65 61 55 54 55 51 57 58 54 47 47 49 46 43 44 43
46 48 48 51 54 57 57 55 61 65 66 65 64 66 72 73 77 79 87 91 91 91 91 94 91 88 89 88 85 82 80 74 73 72 70 68 65 60 56 56 60 51 52 54 51 50 50 49 48
47 46 49 50 55 59 60 60 62 64 68 71 71 71 72 73 76 80 83 88 92 99 96 96 98 96 93 94 91 89 87 81 74 69 69 69 72 70 67 58 61 58 56 58 61 57 50 53 46
42 44 47 50 53 56 62 64 67 71 74 76 77 77 77 76 81 81 84 86 92 98 102 99 97 100 101 97 98 95 93 88 80 76 71 73 69 66 70 67 61 63 58 60 62 63 59 54 53
44 46 48 50 54 57 60 64 68 71 75 78 81 83 84 84 84 88 88 89 91 94 102 104 106 104 102 102 103 100 98 95 92 85 76 77 76 70 70 63 67 70 63 65 64 60 63 57 58
39 42 45 48 52 57 61 65 69 73 76 81 85 87 89 92 93 95 97 98 99 97 98 103 109 111 111 107 107 106 101 101 98 92 81 82 79 77 75 74 72 68 67 69 67 64 58 60 59
42 45 48 51 54 57 60 63 66 71 76 81 85 88 91 95 99 101 100 103 104 107 104 106 105 107 112 114 112 109 111 105 105 102 96 87 85 84 80 78 78 72 74 75 70 69 62 67 65
43 45 49 51 54 57 61 66 69 74 79 83 88 92 96 98 101 103 106 108 109 111 111 110 112 111 110 115 120 118 112 113 112 109 103 98 91 92 89 85 82 74 75 70 72 73 70 71 74
46 49 52 54 57 59 64 70 76 80 85 89 95 100 105 108 110 110 112 115 117 116 116 119 116 117 115 113 115 121 121 119 112 115 113 99 96 96 99 92 89 81 76 75 74 77 74 80 74
47 51 53 55 60 63 70 74 78 81 86 90 96 102 108 113 118 122 124 123 125 123 124 122 126 122 121 119 115 115 120 122 123 116 115 111 92 91 100 96 94 88 82 77 76 77 77 71 77
49 52 56 60 63 69 72 79 77 79 86 93 100 107 113 119 125 128 130 133 130 132 135 130 131 133 129 124 121 118 115 123 126 123 116 120 117 98 94 97 97 97 89 83 67 62 67 67 68
52 55 59 61 69 72 76 79 78 84 85 89 94 96 102 108 114 121 126 128 134 136 129 137 136 138 138 134 129 124 122 121 126 130 125 124 120 120 96 95 102 97 98 92 81 71 59 60 69
53 56 61 69 72 80 77 78 80 86 89 84 71 69 77 87 98 106 115 121 123 125 137 133 140 142 143 142 139 132 126 127 128 132 129 128 125 124 117 109 100 108 97 94 83 78 65 60 58
54 58 67 72 76 79 75 78 78 83 86 78 71 58 49 62 81 93 100 104 112 119 125 133 139 135 143 143 142 138 135 130 129 129 128 132 133 129 124 115 105 102 105 99 91 79 71 67 59
54 60 72 75 77 76 76 74 74 83 87 86 76 59 50 46 52 72 86 93 99 108 117 123 130 134 136 142 143 144 134 134 132 131 132 131 134 134 130 126 121 113 111 106 102 94 74 64 57
58 67 72 80 75 73 76 66 73 79 86 84 68 57 48 45 47 52 64 79 87 93 101 109 117 124 128 134 136 136 125 134 134 138 129 132 136 137 134 131 128 121 119 117 106 103 87 81 73
60 69 76 81 73 69 67 65 67 69 78 77 68 52 43 40 42 45 51 60 72 82 88 88 99 113 121 128 131 133 134 126 128 132 134 132 139 131 130 134 128 129 122 116 119 108 101 97 86
65 72 79 75 69 69 60 61 60 60 64 69 60 51 36 35 37 40 42 49 55 61 72 78 85 94 108 116 123 125 129 130 127 132 133 133 132 132 132 134 131 127 127 123 119 123 114 107 101
64 73 78 71 68 67 57 56 54 52 49 58 49 44 33 27 29 30 33 37 41 47 54 61 71 82 97 108 110 115 116 121 121 128 124 135 130 131 129 128 128 130 129 128 122 118 120 117 112
65 73 73 66 63 63 53 50 53 52 49 50 43 36 29 25 22 21 24 27 29 34 40 49 58 69 80 98 101 102 103 106 110 116 119 124 130 132 132 128 132 131 131 129 130 125 118 118 119
65 71 68 62 59 57 53 50 51 54 52 46 41 36 28 21 17 14 15 18 24 31 35 43 52 62 72 87 93 96 96 97 99 104 108 108 114 121 126 126 127 130 129 128 128 126 122 118 115
67 70 63 55 56 53 50 45 52 57 56 53 40 34 28 19 13 11 9 11 20 28 32 40 50 58 68 80 86 89 90 91 91 91 94 96 95 105 115 120 123 122 122 124 127 126 123 119 115
66 68 56 51 52 51 51 49 50 56 58 50 44 32 26 20 13 8 7 8 15 22 28 38 48 56 66 73 77 80 84 86 84 85 85 85 86 89 96 108 113 115 115 118 124 126 126 122 120
62 59 50 44 46 47 49 48 50 54 59 58 47 34 25 19 15 10 5 3 13 18 25 35 43 53 64 67 71 74 76 78 79 79 79 78 79 82 86 90 102 106 109 113 121 124 127 125 122
61 56 49 43 38 44 45 47 50 55 57 56 48 32 24 16 14 10 7 4 11 17 24 33 39 50 61 66 66 66 69 71 73 74 73 72 72 74 76 82 87 92 99 105 112 119 124 125 123
57 55 47 42 37 40 41 44 49 54 57 56 45 34 24 15 14 13 11 8 12 15 24 31 38 45 53 56 55 56 59 63 65 64 62 62 61 64 68 72 75 79 81 90 99 113 119 122 122
59 56 43 37 34 33 39 41 45 52 58 58 48 34 27 18 16 16 15 13 15 17 24 31 35 39 42 43 45 48 50 51 50 50 51 50 51 54 59 63 65 67 68 72 76 93 100 106 111
Wind_Direction
253 252 252 250 249 248 250 243 241 235 235 230 230 229 230 233 233 228 231 233 236 234 231 229 228 225 228 230 228 222 220 220 225 232 234 235 239 242 239 242 241 248 239 247 247 248 253 256 262
258 253 252 253 245 246 248 251 249 245 242 239 234 230 231 232 235 233 231 233 233 233 235 232 230 230 230 230 231 227 226 228 228 231 238 234 239 236 234 240 238 243 244 249 246 245 257 261 261
255 256 254 253 254 247 245 251 250 246 243 244 242 235 234 233 235 234 234 234 235 232 233 235 235 233 232 233 232 232 231 233 229 233 240 237 235 238 238 243 242 246 244 248 253 254 258 267 269
262 262 261 254 251 253 249 246 247 249 248 245 244 243 241 238 235 234 233 235 237 235 232 233 235 235 234 234 235 233 232 231 236 236 239 231 235 233 238 242 239 238 242 246 250 253 256 261 266
266 264 264 261 261 257 251 249 253 251 249 248 247 245 241 241 236 237 236 234 233 235 235 233 233 234 235 234 233 235 234 232 234 240 238 241 242 236 240 241 241 239 246 250 252 257 258 262 266
267 261 262 263 259 257 256 256 253 252 252 250 248 245 244 242 243 238 237 236 236 235 235 235 233 233 233 234 234 233 233 232 234 233 238 241 242 243 242 236 238 242 249 253 254 256 262 264 266
267 267 264 263 262 258 255 256 254 253 253 252 250 249 247 245 243 242 241 239 237 235 235 235 233 232 232 232 233 233 234 232 231 235 233 230 236 238 240 242 236 245 248 251 252 257 260 262 265
268 266 265 265 264 263 261 258 255 254 255 253 252 249 249 246 244 242 242 243 243 240 236 235 235 233 232 232 231 232 233 233 230 233 235 233 230 231 234 228 231 240 247 249 250 256 256 258 259
276 273 269 266 265 265 264 263 262 260 257 255 251 249 246 245 245 245 244 243 242 239 238 236 235 235 234 233 232 232 231 232 231 230 232 236 233 229 229 232 236 239 241 243 246 253 256 255 258
280 279 277 274 272 273 273 273 271 268 265 263 259 254 249 247 245 244 242 242 241 239 236 234 234 234 234 235 233 233 231 232 232 230 230 232 233 232 230 230 232 239 241 240 244 245 249 252 254
289 287 284 283 281 282 281 278 276 273 270 267 263 259 254 249 247 244 241 239 237 237 236 235 233 232 232 233 234 234 232 232 232 231 231 232 230 234 234 230 232 234 241 245 249 249 249 251 254
295 291 291 290 291 289 287 284 282 277 272 269 265 262 259 254 247 245 243 237 234 234 233 233 231 231 229 230 232 233 233 232 231 230 230 233 230 232 235 232 232 235 238 240 244 243 245 241 245
300 298 296 296 296 295 294 291 286 282 279 274 269 266 262 260 256 246 240 239 235 232 231 230 230 228 228 227 228 229 231 232 232 231 230 229 227 231 234 234 232 230 230 236 244 243 245 244 245
305 303 304 304 305 304 299 300 292 286 277 271 266 262 261 259 256 254 249 240 238 234 230 229 228 228 226 226 226 227 229 230 232 231 229 229 229 227 232 235 233 230 228 233 238 234 240 243 247
310 308 308 309 312 311 309 303 301 295 286 277 272 268 263 259 257 254 252 249 243 240 238 229 228 227 226 225 225 226 228 228 230 231 230 231 231 229 223 229 234 231 229 231 237 236 240 244 245
314 312 313 316 320 317 312 309 307 302 296 292 288 279 262 256 253 250 249 248 246 240 238 240 232 228 227 226 225 225 227 228 229 230 229 230 231 231 229 227 228 232 229 228 231 234 233 235 240
318 319 317 320 322 317 315 314 309 305 303 303 311 306 278 254 249 248 248 245 244 241 237 235 235 233 230 227 226 227 226 226 228 229 228 230 231 231 233 228 223 224 228 228 227 232 231 235 247
319 321 322 325 324 319 319 317 313 309 310 314 316 309 294 274 255 245 247 246 244 240 239 235 233 232 232 230 228 229 228 228 227 228 229 229 230 231 230 230 228 228 227 230 229 228 232 233 245
324 325 326 327 325 323 322 322 319 314 314 319 319 308 296 283 267 254 245 242 242 241 240 236 234 233 228 228 229 231 231 232 229 229 229 228 231 233 232 232 233 232 234 232 228 226 228 232 236
326 327 327 328 325 326 324 326 325 322 318 319 318 310 298 283 272 260 251 244 241 239 239 237 233 230 228 227 225 228 231 232 231 231 233 232 232 230 230 231 229 232 232 232 234 229 228 230 232
328 329 328 328 326 328 324 323 329 331 325 318 316 315 304 288 276 267 255 248 245 241 238 236 232 227 225 225 224 224 225 227 229 230 233 231 233 231 229 230 229 229 232 231 230 237 232 229 232
332 329 329 328 328 328 327 332 344 344 335 325 318 316 312 294 281 270 254 245 240 236 233 231 229 225 222 221 221 222 224 224 226 228 229 233 230 234 233 232 229 231 231 233 232 232 236 229 232
333 330 331 329 331 330 328 339 349 342 346 330 328 324 321 312 298 276 257 246 234 224 222 223 223 220 219 217 217 219 221 224 227 226 228 230 228 231 230 232 235 234 234 233 234 232 231 233 233
333 333 332 329 330 330 330 338 350 1 359 350 340 338 336 327 311 290 266 247 229 215 212 212 213 213 212 213 214 217 219 221 224 227 228 230 231 229 228 228 231 234 234 232 234 235 231 230 232
333 332 332 329 329 335 337 349 359 6 5 1 354 350 346 343 332 322 294 244 213 207 208 206 205 206 207 209 212 215 217 220 223 224 227 229 232 234 230 229 229 230 234 234 233 231 231 231 231
334 333 332 332 334 340 342 342 359 4 10 5 1 357 356 358 0 352 314 247 206 199 203 201 200 200 202 205 209 213 216 218 220 223 225 227 230 230 232 231 231 230 230 233 230 229 232 231 231
338 339 333 336 337 335 344 350 1 7 12 11 5 3 3 1 15 13 2 206 186 191 194 192 192 196 199 202 207 211 214 218 220 223 225 226 229 230 233 234 232 231 227 227 225 229 231 232 233
340 339 334 336 345 343 347 355 4 9 16 14 11 10 11 11 27 32 48 118 162 173 180 183 185 189 195 201 206 211 214 216 219 222 225 227 229 229 232 232 232 232 232 228 227 229 230 232 233
339 335 334 339 347 346 351 359 4 11 17 17 15 13 20 25 46 53 72 111 136 157 171 176 183 189 196 201 207 211 213 216 218 221 223 226 227 228 229 230 231 231 234 232 229 230 231 234 235
344 337 336 337 350 353 352 1 5 10 14 19 19 26 32 39 65 70 91 121 132 151 162 169 180 189 196 203 207 210 211 210 213 217 220 223 226 227 226 227 228 229 228 226 228 231 234 236 233
Height
10720 10720 10720 10721 10721 10717 10712 10714 10719 10727 10729 10733 10739 10742 10744 10746 10750 10759 10758 10760 10765 10771 10775 10780 10782 10785 10789 10792 10796 10803 10806 10811 10816 10820 10825 10828 10830 10834 10837 10839 10840 10842 10843 10844 10846 10848 10849 10851 10852
10710 10711 10712 10711 10711 10707 10708 10707 10710 10714 10717 10718 10723 10726 10729 10734 10736 10743 10746 10747 10751 10757 10762 10767 10772 10776 10778 10781 10785 10792 10798 10802 10807 10813 10817 10821 10824 10826 10829 10832 10832 10835 10836 10838 10840 10842 10843 10844 10845
10702 10701 10703 10702 10698 10700 10702 10700 10701 10701 10702 10703 10706 10710 10715 10721 10723 10729 10732 10736 10737 10743 10748 10752 10757 10762 10767 10772 10775 10780 10787 10793 10799 10804 10808 10811 10815 10818 10821 10824 10826 10828 10830 10831 10833 10836 10837 10838 10838
10692 10691 10693 10690 10688 10689 10691 10689 10687 10688 10690 10692 10691 10694 10699 10702 10706 10712 10717 10721 10723 10726 10732 10738 10742 10747 10754 10760 10765 10768 10775 10783 10789 10793 10799 10802 10806 10810 10814 10816 10818 10819 10821 10823 10825 10828 10830 10833 10833
10680 10680 10680 10679 10678 10679 10679 10680 10677 10675 10675 10677 10678 10682 10682 10684 10688 10691 10695 10699 10704 10707 10713 10721 10726 10732 10738 10745 10750 10758 10763 10769 10778 10782 10787 10791 10796 10802 10805 10808 10810 10812 10814 10815 10817 10821 10822 10825 10826
10669 10668 10667 10666 10664 10664 10663 10662 10662 10660 10658 10660 10665 10664 10664 10669 10672 10673 10674 10676 10681 10686 10692 10700 10708 10714 10721 10728 10734 10742 10748 10755 10763 10769 10774 10779 10784 10790 10795 10800 10801 10804 10805 10806 10808 10811 10814 10815 10817
10659 10658 10655 10653 10651 10650 10648 10647 10646 10644 10641 10642 10644 10646 10649 10652 10650 10652 10653 10656 10659 10664 10669 10675 10683 10691 10699 10707 10715 10724 10732 10739 10747 10754 10759 10764 10770 10777 10782 10788 10792 10794 10795 10795 10797 10802 10805 10807 10808
10648 10646 10643 10642 10639 10636 10633 10631 10629 10627 10623 10622 10621 10626 10626 10627 10628 10628 10631 10634 10639 10644 10649 10654 10661 10668 10674 10683 10693 10703 10712 10720 10728 10737 10743 10749 10756 10762 10769 10774 10779 10781 10783 10784 10787 10791 10795 10798 10799
10636 10633 10630 10628 10625 10621 10616 10613 10610 10608 10605 10601 10598 10597 10601 10603 10604 10604 10605 10608 10610 10616 10623 10630 10637 10644 10653 10662 10671 10682 10693 10700 10707 10717 10726 10734 10740 10749 10757 10762 10765 10767 10769 10773 10778 10780 10784 10787 10788
10624 10620 10617 10613 10610 10606 10602 10597 10593 10588 10583 10577 10571 10570 10573 10574 10575 10576 10577 10579 10583 10588 10595 10603 10610 10618 10627 10637 10648 10659 10672 10680 10687 10698 10707 10716 10723 10733 10742 10748 10752 10755 10755 10759 10764 10769 10773 10776 10776
10612 10607 10601 10597 10595 10590 10584 10576 10569 10563 10556 10549 10541 10536 10532 10536 10534 10538 10543 10548 10550 10556 10562 10573 10582 10592 10601 10611 10622 10634 10644 10654 10667 10678 10691 10697 10706 10715 10727 10734 10738 10743 10744 10751 10752 10757 10759 10761 10763
10598 10591 10585 10581 10576 10570 10562 10553 10545 10536 10527 10519 10512 10505 10497 10492 10495 10497 10501 10505 10513 10521 10527 10538 10550 10562 10573 10585 10594 10604 10616 10629 10643 10657 10670 10680 10688 10697 10707 10717 10722 10731 10736 10735 10736 10742 10745 10747 10750
10583 10576 10570 10565 10557 10549 10537 10526 10515 10505 10494 10487 10478 10470 10463 10455 10451 10454 10459 10465 10472 10481 10489 10500 10516 10527 10541 10554 10564 10576 10587 10601 10616 10633 10647 10660 10671 10679 10689 10699 10708 10715 10712 10717 10720 10727 10730 10733 10738
10569 10560 10552 10544 10535 10525 10510 10493 10483 10475 10459 10448 10440 10430 10424 10419 10417 10415 10420 10428 10437 10445 10454 10464 10477 10495 10508 10523 10536 10547 10560 10575 10590 10607 10620 10634 10648 10660 10671 10681 10691 10698 10705 10707 10710 10713 10717 10720 10722
10555 10545 10534 10526 10514 10499 10484 10462 10453 10430 10416 10405 10396 10389 10381 10374 10372 10370 10370 10379 10399 10412 10420 10433 10444 10458 10474 10490 10506 10521 10534 10549 10563 10579 10596 10612 10624 10637 10650 10661 10672 10683 10690 10695 10698 10700 10703 10706 10706
10542 10530 10517 10506 10492 10473 10458 10439 10421 10398 10378 10365 10357 10345 10334 10328 10324 10323 10324 10330 10345 10368 10384 10397 10415 10429 10444 10459 10476 10493 10506 10521 10533 10552 10571 10586 10601 10614 10626 10641 10652 10664 10674 10681 10685 10687 10689 10691 10691
10526 10515 10500 10488 10474 10452 10435 10414 10397 10370 10347 10332 10319 10306 10298 10292 10290 10287 10289 10295 10306 10319 10338 10355 10375 10396 10416 10432 10450 10464 10481 10495 10510 10525 10543 10560 10578 10593 10608 10619 10630 10640 10653 10663 10670 10675 10675 10676 10678
10516 10504 10485 10468 10454 10431 10412 10396 10372 10347 10323 10304 10292 10281 10271 10264 10260 10260 10260 10265 10271 10281 10297 10320 10337 10359 10384 10404 10425 10441 10458 10472 10488 10501 10516 10533 10550 10568 10584 10595 10609 10618 10632 10644 10653 10658 10662 10666 10666
10501 10486 10473 10452 10435 10416 10395 10377 10354 10329 10303 10283 10272 10260 10250 10241 10237 10236 10236 10239 10245 10254 10263 10285 10306 10326 10349 10369 10397 10418 10434 10450 10465 10478 10493 10507 10523 10546 10562 10576 10590 10599 10613 10625 10633 10642 10647 10651 10651
10490 10474 10457 10437 10421 10405 10382 10360 10336 10313 10288 10267 10254 10244 10232 10224 10217 10216 10217 10220 10225 10231 10242 10257 10275 10296 10319 10341 10368 10390 10407 10423 10440 10457 10471 10489 10500 10521 10540 10552 10566 10579 10593 10606 10614 10623 10629 10634 10636
10475 10461 10443 10426 10410 10391 10376 10352 10327 10304 10279 10258 10240 10230 10220 10211 10204 10201 10201 10204 10207 10214 10224 10236 10252 10272 10294 10316 10341 10361 10376 10396 10415 10432 10445 10463 10481 10499 10513 10528 10542 10556 10569 10582 10590 10600 10611 10614 10617
10468 10450 10432 10415 10398 10381 10365 10343 10318 10297 10274 10251 10234 10220 10211 10202 10196 10191 10189 10190 10194 10200 10208 10220 10234 10253 10273 10296 10319 10341 10358 10374 10391 10407 10422 10430 10462 10471 10493 10507 10519 10534 10548 10561 10572 10577 10589 10596 10600
10458 10443 10424 10406 10390 10375 10359 10340 10315 10290 10269 10248 10229 10215 10204 10195 10190 10185 10181 10180 10184 10190 10198 10209 10223 10240 10259 10280 10302 10323 10341 10356 10373 10387 10400 10410 10434 10449 10466 10482 10498 10509 10528 10539 10550 10560 10567 10575 10579
10451 10434 10417 10399 10385 10371 10355 10334 10313 10288 10265 10243 10227 10211 10200 10191 10184 10180 10177 10177 10178 10184 10191 10200 10213 10229 10248 10268 10290 10309 10327 10342 10358 10373 10386 10399 10413 10429 10445 10459 10472 10485 10503 10520 10530 10540 10545 10556 10559
10442 10427 10413 10398 10380 10364 10349 10331 10309 10286 10264 10242 10224 10209 10199 10189 10182 10177 10176 10176 10177 10182 10188 10196 10207 10223 10241 10260 10280 10297 10315 10331 10347 10361 10373 10386 10399 10413 10428 10442 10454 10469 10485 10503 10512 10518 10527 10535 10542
10438 10420 10404 10390 10376 10359 10343 10327 10308 10286 10265 10244 10225 10210 10198 10190 10183 10178 10178 10179 10181 10183 10188 10195 10206 10220 10237 10256 10274 10290 10306 10321 10335 10347 10362 10375 10387 10400 10412 10424 10437 10452 10467 10483 10490 10497 10506 10513 10522
10433 10416 10402 10389 10375 10359 10344 10328 10310 10286 10266 10247 10227 10212 10201 10193 10186 10182 10182 10184 10185 10187 10190 10197 10208 10223 10239 10255 10270 10284 10298 10312 10325 10338 10350 10362 10374 10386 10397 10407 10421 10433 10446 10460 10470 10477 10487 10495 10503
10426 10412 10399 10386 10372 10359 10341 10325 10307 10288 10269 10251 10231 10216 10204 10197 10191 10188 10187 10189 10191 10193 10196 10204 10215 10227 10241 10255 10268 10280 10292 10305 10318 10329 10341 10353 10364 10375 10385 10393 10403 10412 10425 10440 10456 10463 10467 10478 10486
10423 10407 10394 10380 10365 10356 10342 10326 10309 10290 10273 10256 10235 10221 10208 10202 10198 10195 10194 10197 10199 10203 10207 10214 10224 10235 10247 10258 10268 10278 10289 10300 10313 10325 10336 10345 10355 10365 10373 10381 10390 10401 10415 10432 10440 10448 10454 10461 10469
10417 10402 10390 10379 10365 10354 10342 10328 10312 10294 10277 10262 10243 10226 10215 10209 10204 10202 10201 10204 10208 10213 10218 10225 10233 10242 10251 10259 10268 10278 10288 10299 10309 10320 10331 10341 10348 10356 10363 10373 10382 10395 10408 10415 10424 10424 10438 10438 10448